"Pseudo-MPEC" for P10LpfE
Created 2019 Jan 15 15:18:33 UT using Find_Orb
Click here for an explanation of pseudo-MPECs
Astrometry: P10LpfE C2019 01 11J`EsI%r'hC%)95BMs4+Tyorq+#
AstrometryAL`4PG3IJ8BQZ?V=
F51 P10LpfE C2019 01 11DLECvqn't6-[$7\ka,)
redacted;]]dVn'h9A'2JK8oHhfJ:,1u0
F51 P10LpfE C2019 01 11!!#WI^y
clickbZZN^+ASS/sIYgVkc@:tvX8[Ym8jviXVIa:.(G;7
F51 P10LpfE ^C2019 01 12.66657811 44 46.005+15 07 38.80 ~1CJI 21.37GVNEOCP568 P10LpfE ^C2019 01 12.66752611 44 46.115+15 07 34.63 ~1CJI 21.27GVNEOCP568 P10LpfE ^C2019 01 12.66847711 44 46.225+15 07 30.45 ~1CJI 21.41GVNEOCP568 P10LpfE IC2019 01 15%o0SkBk!8rk.n4A%](sEdu`
here!I$eSvjH`xm(CM)\EtDm.erEG
L01 P10LpfE KC2019 01 15DcG0DT*R
for13v^p2]EVPSv#SCIw/x(PBkw,aAa%m6miN=U1b2;p
L01 P10LpfE IC2019 01 15n?(xbMvHhq/mQW
explanation]DebVPJBlt*0Ci,D8K6g.f6v^yj
L01 Station data: (568) Mauna Kea (N19.826116 W155.472200) US/Hawaii. (F51) Pan-STARRS 1, Haleakala (N20.707235 W156.255910) US/Hawaii. Observers N. Primak, A. Schultz, S. Watters, J. Thiel, T. Goggia. Measurer PS1 Science Consortium. 1.8-m Ritchey-Chrétien + CCD. (L01) Višnjan Observatory, Tičan (N45.290900 E13.749300) Croatia. Observers K. Korlević, E. Pettarin. Measurer E. Pettarin. 1.0-m f/2.9 reflector + CCD. Orbital elements: P10LpfE Perihelion 2019 May 1.566339 +/- 0.233 TT = 13:35:31 (JD 2458605.066339) Epoch 2019 Jan 15.0 TT = JDT 2458498.5 Earth MOID: 0.0131 Ve: 0.0291 M 232.68237054 +/- 0.17 (J2000 ecliptic) AutoNEOCP n 1.19472650 +/- 0.000976 Peri. 319.30072 +/- 0.023 a 0.87961045 +/- 0.000479 Node 302.97183 +/- 0.016 e 0.2253050 +/- 0.00169 Incl. 7.82672 +/- 0.06 P 0.82/301.32d H 25.3 G 0.15 U 8.1 q 0.68142973 +/- 0.00186 Q 1.07779117 +/- 0.000915 From 9 observations 2019 Jan. 11-15; mean residual 0".28
Residuals in arcseconds: 190111 F51 .00 .02- 190112 568 .00 .03+ 190115 L01 .39+ .74+ 190111 F51 .11- .04- 190112 568 .01+ .00 190115 L01 .24+ .38- 190111 F51 .08+ .05+ 190112 568 .02+ .02- 190115 L01 .63- .36- Ephemerides (geocentric): Date (UTC) HH RA Dec delta r elong mag " sig PA ---- -- -- -- ------------- ----------- ------ ------ ----- --- ---- --- 2019 01 15 15 11 53 15.525 +10 58 44.23 .07070 1.0212 120.4 21.7 .916 169 2019 01 15 16 11 53 23.458 +10 54 37.53 .07053 1.0211 120.4 21.6 .954 169 2019 01 15 17 11 53 31.417 +10 50 29.66 .07036 1.0210 120.4 21.6 0.99 168 2019 01 15 18 11 53 39.402 +10 46 20.62 .07019 1.0209 120.4 21.6 1.03 168 2019 01 15 19 11 53 47.414 +10 42 10.39 .07002 1.0208 120.4 21.6 1.07 168 2019 01 15 20 11 53 55.452 +10 37 58.96 .06984 1.0207 120.3 21.6 1.11 167 2019 01 15 21 11 54 03.517 +10 33 46.33 .06967 1.0206 120.3 21.6 1.16 167 2019 01 15 22 11 54 11.610 +10 29 32.49 .06950 1.0205 120.3 21.6 1.20 167 2019 01 15 23 11 54 19.729 +10 25 17.44 .06933 1.0204 120.3 21.6 1.24 167 2019 01 16 00 11 54 27.876 +10 21 01.16 .06916 1.0203 120.3 21.6 1.29 166 2019 01 16 01 11 54 36.051 +10 16 43.64 .06899 1.0202 120.3 21.6 1.33 166 2019 01 16 02 11 54 44.254 +10 12 24.89 .06882 1.0201 120.3 21.6 1.38 166 2019 01 16 03 11 54 52.485 +10 08 04.88 .06865 1.0200 120.3 21.6 1.43 166 2019 01 16 04 11 55 00.744 +10 03 43.62 .06848 1.0199 120.2 21.6 1.48 165 2019 01 16 05 11 55 09.031 +09 59 21.08 .06832 1.0197 120.2 21.6 1.53 165 2019 01 16 06 11 55 17.348 +09 54 57.27 .06815 1.0196 120.2 21.6 1.58 165 2019 01 16 07 11 55 25.693 +09 50 32.18 .06798 1.0195 120.2 21.6 1.63 165 2019 01 16 08 11 55 34.068 +09 46 05.80 .06781 1.0194 120.2 21.6 1.69 165 2019 01 16 09 11 55 42.472 +09 41 38.11 .06764 1.0193 120.2 21.6 1.74 164 2019 01 16 10 11 55 50.906 +09 37 09.11 .06747 1.0192 120.2 21.6 1.80 164 2019 01 16 11 11 55 59.370 +09 32 38.80 .06730 1.0191 120.1 21.6 1.85 164 2019 01 16 12 11 56 07.863 +09 28 07.15 .06713 1.0190 120.1 21.5 1.91 164 2019 01 16 13 11 56 16.388 +09 23 34.17 .06696 1.0189 120.1 21.5 1.97 164 2019 01 16 14 11 56 24.942 +09 18 59.85 .06680 1.0188 120.1 21.5 2.03 164 2019 01 16 15 11 56 33.528 +09 14 24.17 .06663 1.0187 120.1 21.5 2.09 163 2019 01 16 16 11 56 42.145 +09 09 47.12 .06646 1.0186 120.1 21.5 2.15 163 2019 01 16 17 11 56 50.793 +09 05 08.70 .06629 1.0185 120.0 21.5 2.22 163 2019 01 16 18 11 56 59.472 +09 00 28.90 .06612 1.0184 120.0 21.5 2.28 163 2019 01 16 19 11 57 08.184 +08 55 47.71 .06596 1.0183 120.0 21.5 2.35 163 2019 01 16 20 11 57 16.927 +08 51 05.12 .06579 1.0182 120.0 21.5 2.42 163 2019 01 16 21 11 57 25.703 +08 46 21.11 .06562 1.0181 120.0 21.5 2.48 163 2019 01 16 22 11 57 34.511 +08 41 35.69 .06545 1.0180 120.0 21.5 2.55 163 2019 01 16 23 11 57 43.352 +08 36 48.84 .06529 1.0178 119.9 21.5 2.63 162 2019 01 17 00 11 57 52.226 +08 32 00.54 .06512 1.0177 119.9 21.5 2.70 162 2019 01 17 01 11 58 01.133 +08 27 10.80 .06495 1.0176 119.9 21.5 2.77 162 2019 01 17 02 11 58 10.074 +08 22 19.60 .06479 1.0175 119.9 21.5 2.85 162 2019 01 17 03 11 58 19.049 +08 17 26.93 .06462 1.0174 119.9 21.5 2.92 162 2019 01 17 04 11 58 28.058 +08 12 32.78 .06446 1.0173 119.8 21.5 3.00 162 2019 01 17 05 11 58 37.101 +08 07 37.14 .06429 1.0172 119.8 21.5 3.08 162 2019 01 17 06 11 58 46.179 +08 02 40.00 .06412 1.0171 119.8 21.5 3.16 162 2019 01 17 07 11 58 55.292 +07 57 41.35 .06396 1.0170 119.8 21.5 3.24 162 2019 01 17 08 11 59 04.440 +07 52 41.18 .06379 1.0169 119.8 21.4 3.33 162 2019 01 17 09 11 59 13.624 +07 47 39.48 .06363 1.0168 119.7 21.4 3.41 161 2019 01 17 10 11 59 22.843 +07 42 36.24 .06346 1.0167 119.7 21.4 3.50 161 2019 01 17 11 11 59 32.099 +07 37 31.45 .06330 1.0166 119.7 21.4 3.59 161 2019 01 17 12 11 59 41.390 +07 32 25.10 .06313 1.0164 119.7 21.4 3.68 161 2019 01 17 13 11 59 50.719 +07 27 17.17 .06297 1.0163 119.6 21.4 3.77 161 2019 01 17 14 12 00 00.084 +07 22 07.67 .06280 1.0162 119.6 21.4 3.86 161